Bangor, ME

4:31 AM EDT on October 17, 2019 (GMT -0400)
Bangor International

Weather History for KBGR - August, 2019

Change the Weather History Date:

Thursday, August 8, 2019

  Actual Average Record
Temperature  
Mean Temperature 67 °F 68 °F  
Max Temperature 68 °F 79 °F 98 °F (1935)
Min Temperature 66 °F 57 °F 41 °F (1943)
Degree Days  
Heating Degree Days 0 1  
Month to date heating degree days 0 8  
Since 1 June heating degree days 90 138  
Since 1 July heating degree days 0 31  
Cooling Degree Days 2 4  
Month to date cooling degree days 32 32  
Year to date cooling degree days 258 222  
Since 1 June cooling degree days 258 216  
Growing Degree Days 17 (Base 50)    
Moisture  
Dew Point 66 °F    
Average Humidity 97    
Maximum Humidity 100    
Minimum Humidity 93    
Precipitation  
Precipitation 3.11 in 0.11 in 3.11 in (2019)
Month to date precipitation 3.60 0.87  
Year to date precipitation 32.27 24.14  
Snow  
Snow 0.00 in 0.00 in 0.00 in (2002)
Month to date snowfall 0.0 0.0  
Since 1 June snowfall 0.0 0.0  
Since 1 July snowfall 0.0 0.0  
Snow Depth 0.00 in    
Sea Level Pressure  
Sea Level Pressure 29.70 in    
Wind  
Wind Speed 9 mph (SSE)    
Max Wind Speed 16 mph    
Max Gust Speed 20 mph    
Visibility 2 miles    
Events Fog , Rain , Thunderstorm    
T = Trace of Precipitation, MM = Missing Value Source: NWS Daily Summary

Daily Weather History Graph

Daily Weather History Graph

Search for Another Location

Airport or City:

Astronomy

Aug. 08, 2019 Rise Set
Actual Time 5:28 AM EDT 7:52 PM EDT
Civil Twilight 4:56 AM EDT 8:24 PM EDT
Nautical Twilight 4:15 AM EDT 9:05 PM EDT
Astronomical Twilight 3:29 AM EDT 9:50 PM EDT
Moon 2:24 PM EDT (8/8) No Moon Set
Length of Visible Light 15h 28m
Length of Day
14h 23m
First Quarter, 60% of the Moon is Illuminated
Aug 8
First Quarter
Aug 15
Full
Aug 23
Last Quarter
Aug 30
New
Sep 5
First Quarter

Hourly Weather History & Observations

Time (EDT) Temp. Dew Point Humidity Pressure Visibility Wind Dir Wind Speed Gust Speed Precip Events Conditions
12:02 AM 68.0 °F 66.9 °F 96% 29.84 in 5.0 mi SE 3.5 mph - N/A Rain , Thunderstorm Light Thunderstorms and Rain
12:19 AM 68.0 °F 66.9 °F 96% 29.83 in 6.0 mi SSE 10.4 mph - N/A Rain Light Rain
12:53 AM 68.0 °F 66.9 °F 96% 29.81 in 3.0 mi SSE 12.7 mph - N/A   Overcast
1:23 AM 68.0 °F 66.9 °F 96% 29.80 in 1.0 mi SSE 10.4 mph - 0.01 in Rain Light Rain
1:53 AM 68.0 °F 66.9 °F 96% 29.80 in 1.0 mi South 12.7 mph - 0.01 in   Overcast
2:53 AM 68.0 °F 66.9 °F 96% 29.78 in 1.0 mi South 12.7 mph - 0.25 in Rain Rain
3:16 AM 68.0 °F 66.0 °F 93% 29.79 in 1.0 mi South 11.5 mph - 0.14 in Rain Rain
3:53 AM 66.9 °F 66.0 °F 97% 29.77 in 2.0 mi SSE 9.2 mph - 0.28 in Rain Light Rain
4:22 AM 68.0 °F 66.0 °F 93% 29.78 in 2.0 mi South 10.4 mph - 0.00 in   Overcast
4:53 AM 66.9 °F 66.0 °F 97% 29.76 in 2.0 mi South 13.8 mph - 0.00 in   Overcast
5:38 AM 66.9 °F 66.0 °F 97% 29.77 in 1.2 mi SSE 8.1 mph - 0.20 in Rain Heavy Rain
5:43 AM 66.9 °F 66.0 °F 97% 29.77 in 2.0 mi SSE 10.4 mph - 0.21 in Rain Rain
5:53 AM 66.9 °F 66.0 °F 97% 29.76 in 2.0 mi SE 6.9 mph - 0.22 in Rain Light Rain
6:01 AM 66.9 °F 66.0 °F 97% 29.77 in 2.0 mi SE 9.2 mph - 0.01 in Rain Light Rain
6:13 AM 66.9 °F 66.0 °F 97% 29.77 in 4.0 mi SSE 8.1 mph - 0.01 in   Overcast
6:53 AM 66.9 °F 66.0 °F 97% 29.75 in 6.0 mi SSE 12.7 mph 18.4 mph 0.01 in   Overcast
7:53 AM 66.9 °F 66.0 °F 97% 29.75 in 5.0 mi SSE 11.5 mph - 0.01 in Rain Light Rain
8:53 AM 68.0 °F 66.0 °F 93% 29.73 in 8.0 mi SSE 10.4 mph - 0.04 in Rain Light Rain
9:53 AM 66.9 °F 66.0 °F 97% 29.73 in 2.5 mi SSE 10.4 mph - 0.11 in Rain Rain
10:13 AM 66.9 °F 66.0 °F 97% 29.73 in 1.0 mi SSE 11.5 mph - 0.18 in Rain Heavy Rain
10:24 AM 66.9 °F 66.0 °F 97% 29.73 in 0.5 mi SE 8.1 mph - 0.51 in Fog , Rain Heavy Rain
10:53 AM 66.9 °F 66.0 °F 97% 29.71 in 0.5 mi SSE 10.4 mph - 0.91 in Fog , Rain Heavy Rain
11:06 AM 66.9 °F 66.0 °F 97% 29.71 in 1.0 mi SSE 12.7 mph - 0.09 in Rain Light Rain
11:16 AM 68.0 °F 66.0 °F 93% 29.71 in 3.0 mi SSE 10.4 mph - 0.09 in Rain Light Rain
11:33 AM 66.9 °F 66.0 °F 97% 29.71 in 3.0 mi SSE 10.4 mph - 0.12 in Rain Light Rain
11:53 AM 68.0 °F 66.0 °F 93% 29.69 in 3.0 mi SSE 10.4 mph - 0.15 in Rain Light Rain
12:33 PM 68.0 °F 66.0 °F 93% 29.69 in 1.0 mi SSE 10.4 mph - 0.21 in Rain Rain
12:53 PM 66.9 °F 66.0 °F 97% 29.68 in 0.8 mi SSE 11.5 mph - 0.48 in Rain Heavy Rain
1:07 PM 66.9 °F 66.0 °F 97% 29.68 in 2.0 mi SSE 10.4 mph - 0.09 in Rain Heavy Rain
1:11 PM 66.9 °F 66.0 °F 97% 29.68 in 2.0 mi South 12.7 mph - 0.19 in Rain Rain
1:14 PM 66.9 °F 66.0 °F 97% 29.68 in 0.5 mi South 9.2 mph - 0.28 in Fog , Rain Heavy Rain
1:25 PM 66.9 °F 66.0 °F 97% 29.67 in 1.0 mi South 10.4 mph - 0.41 in Rain Rain
1:34 PM 66.9 °F 66.0 °F 97% 29.67 in 1.8 mi SSE 9.2 mph - 0.46 in Rain Rain
1:43 PM 66.9 °F 66.0 °F 97% 29.67 in 2.5 mi SSE 10.4 mph - 0.49 in Rain Light Rain
1:53 PM 66.9 °F 66.0 °F 97% 29.66 in 1.2 mi South 9.2 mph - 0.55 in Rain Rain
2:13 PM 68.0 °F 66.0 °F 93% 29.66 in 1.5 mi South 6.9 mph - 0.03 in Rain Light Rain
2:53 PM 68.0 °F 66.0 °F 93% 29.64 in 1.5 mi South 9.2 mph - 0.05 in Rain Light Rain
3:32 PM 68.0 °F 66.9 °F 96% 29.64 in 2.0 mi SSE 9.2 mph - 0.04 in Rain Light Rain
3:53 PM 68.0 °F 66.9 °F 96% 29.63 in 2.0 mi South 8.1 mph - 0.04 in   Overcast
4:53 PM 68.0 °F 66.0 °F 93% 29.62 in 2.0 mi SSE 9.2 mph - 0.00 in   Light Drizzle
5:53 PM 68.0 °F 66.9 °F 96% 29.60 in 2.0 mi SSE 8.1 mph - 0.00 in   Light Drizzle
6:00 PM 68.0 °F 66.9 °F 96% 29.62 in 3.0 mi South 6.9 mph - 0.00 in   Overcast
6:15 PM 68.0 °F 66.9 °F 96% 29.63 in 3.0 mi SSW 6.9 mph - 0.00 in   Overcast
6:53 PM 68.0 °F 66.9 °F 96% 29.62 in 3.0 mi SSE 8.1 mph - 0.00 in   Light Drizzle
7:53 PM 66.9 °F 66.0 °F 97% 29.62 in 3.0 mi SSE 9.2 mph - 0.00 in   Light Drizzle
8:53 PM 66.9 °F 66.0 °F 97% 29.63 in 3.0 mi SSE 9.2 mph - 0.00 in   Overcast
9:20 PM 66.0 °F 66.0 °F 100% 29.64 in 1.5 mi SSE 6.9 mph - N/A   Overcast
9:53 PM 66.0 °F 66.0 °F 100% 29.62 in 1.5 mi SE 8.1 mph - N/A   Overcast
10:03 PM 66.0 °F 66.0 °F 100% 29.62 in 0.8 mi SSE 8.1 mph - N/A   Overcast
10:53 PM 66.0 °F 66.0 °F 100% 29.59 in 0.8 mi SSE 8.1 mph - 0.00 in   Light Drizzle
11:30 PM 66.0 °F 64.9 °F 96% 29.60 in 0.8 mi South 3.5 mph - 0.00 in Rain , Thunderstorm Light Thunderstorms and Rain
11:53 PM 66.0 °F 64.9 °F 96% 29.58 in 0.8 mi Calm Calm - 0.00 in   Overcast